Location: Hilina Pali Trail
(19.2864°N, 155.2806°W)
Time: 17:54:00
(UTC+00:00)

Daily predictions for brighter satellites

Satellite Brightness Start Highest point End
(mag) Time Altitude Azimuth Time Altitude Azimuth Time Altitude Azimuth
ADEOS II 4.5 12:59:14 10° ENE 13:02:24 16° E 13:02:38 16° E
Cosmos 2082 Rocket 4.3 13:12:41 19° ESE 13:13:38 20° ESE 13:17:37 10° ENE
SL-16 R/B 4.4 13:18:37 18° NNW 13:18:37 18° NNW 13:20:02 10° NNW
USA 267 3.2 13:31:58 10° SE 13:38:29 81° NE 13:45:02 10° NW
NOSS 3-2 (C) 4.3 13:30:34 10° NNW 13:38:29 68° ENE 13:46:43 10° SSE
Lacrosse 5 rocket 3.9 13:41:52 17° N 13:41:52 17° N 13:43:10 10° N
Okean O Rocket 2.9 13:38:47 10° NNE 13:41:58 38° ENE 13:41:58 38° ENE
Intelsat 5-2 Rocket 4.4 13:44:02 50° SSE 13:44:02 50° SSE 13:55:09 10° ENE
Cosmos 1339 Rocket 4.2 13:53:43 81° W 13:53:45 81° W 13:59:48 10° N
Cosmos 1605 Rocket 3.9 13:53:00 10° N 13:59:11 84° E 14:02:31 29° S
Cosmos 1624 Rocket 4.3 13:55:34 10° N 14:00:44 66° ENE 14:05:56 10° SSE
Atlas Centaur 2 3.1 14:03:33 43° SSW 14:03:33 43° SSW 14:08:57 10° SE
SWIFT 2.8 14:06:39 57° E 14:06:39 57° E 14:10:07 10° E
Cosmos 1934 Rocket 4.2 13:59:57 10° NNW 14:05:24 51° WNW 14:05:24 51° WNW
Cosmos 2056 Rocket 3.4 14:08:20 10° NNW 14:13:37 84° ENE 14:18:48 10° SSE
Cosmos 1733 4.4 14:10:10 10° N 14:12:24 34° N 14:12:24 34° N
Orbus 7S 4.2 14:13:14 59° WSW 14:14:19 89° SSE 14:28:01 10° ENE
Meteor 2-5 Rocket 3.6 14:14:46 56° SW 14:15:39 65° W 14:21:18 10° N
COSMOS 2455 2.7 14:10:16 10° NNW 14:16:15 73° WSW 14:22:12 10° SSE
Delta 2 Rocket 3.8 14:17:17 50° WSW 14:19:00 85° NNW 14:25:40 10° ENE
NOSS 3-2 (A) 4.2 14:13:37 10° NW 14:21:10 47° WSW 14:28:58 10° S
COSMOS 2487 4.5 14:24:36 19° NNW 14:24:36 19° NNW 14:25:52 10° N
Delta 128 4.1 14:21:54 48° SSW 14:23:04 62° SSE 14:28:45 10° ENE
CZ-4B DEB 4.1 14:20:51 10° N 14:26:16 66° WNW 14:28:29 35° SW
IRAS Rocket 4.2 14:24:19 10° NNE 14:29:58 90° W 14:34:27 17° SSW
IRS-1C Rocket 4.2 14:25:36 10° N 14:30:43 55° WNW 14:32:30 37° SW
Cosmos 1842 Rocket 4.4 14:28:17 10° N 14:32:35 51° E 14:36:54 10° SSE
Palapa 6 Rocket 3.4 14:33:58 32° W 14:36:45 82° SSW 14:41:36 10° ESE
Cosmos 2173 Rocket 4.4 14:33:23 10° N 14:39:34 64° E 14:45:40 10° SSE
ADEOS II 2.7 14:37:17 10° N 14:42:03 36° WNW 14:43:35 30° WSW
Cosmos 2061 Rocket 4.4 14:37:26 10° N 14:43:35 65° E 14:49:42 10° SSE
Cosmos 158 Rocket 3.8 14:41:04 27° SSW 14:43:38 61° WNW 14:48:34 10° N
CZ-3A R/B 3.3 14:41:05 28° WSW 14:44:31 85° SSE 15:24:49 10° ENE
PSLV R/B 4.3 14:42:03 10° NNW 14:45:56 33° WNW 14:46:37 31° W
Cosmos-2242 3.7 14:42:44 10° NNW 14:46:41 33° W 14:47:18 31° WSW
OE (NEXTSAT) 4.3 14:46:48 37° SW 14:48:04 81° SE 14:51:36 10° NE
Cosmos 1452 Rocket 3.8 14:43:43 10° N 14:48:56 68° ENE 14:54:09 10° SSE
Okean-O 2.8 14:44:48 10° NNE 14:49:13 73° ESE 14:53:38 10° S
Meteor 1-31 Rocket 2.7 14:46:33 10° N 14:50:27 89° WNW 14:54:22 10° SSW
Cosmos 2082 Rocket 2.9 14:54:36 22° WSW 14:57:22 34° WNW 15:02:30 10° N
Cosmos 921 Rocket 4.0 14:54:43 10° NW 14:58:30 27° W 15:02:17 10° SSW
Okean 3 Rocket 3.4 14:54:47 10° S 14:59:08 72° W 15:03:30 10° N
Cosmos 2123 Rocket 4.0 14:53:39 10° S 14:59:59 89° E 15:06:19 10° N
Cosmos 389 Rocket 4.1 15:01:51 10° NW 15:03:51 18° W 15:03:51 18° W
Cosmos 1833 Rocket 3.5 15:01:34 19° WSW 15:04:43 31° WNW 15:09:39 10° N
Cosmos 2221 3.7 15:01:59 10° N 15:06:04 45° E 15:10:08 10° SSE
NOAA 6 4.2 15:01:32 10° NNE 15:06:41 75° ESE 15:11:50 10° S
BREEZE-M DEB 3.7 15:05:41 12° SW 15:13:21 49° NW 15:16:16 10° NNE
Cosmos 2016 Rocket 4.0 15:10:27 10° N 15:16:43 83° W 15:23:04 10° S
Yuri Rocket 4.5 15:11:49 14° W 15:17:21 69° NNW 15:26:13 10° ENE
Cosmos 1802 Rocket 4.1 15:18:08 10° NNW 15:24:23 56° W 15:30:34 10° SSW
ERS-2 2.8 15:21:47 10° N 15:25:08 34° WNW 15:28:29 10° SW
Cosmos 2251 Rocket 3.5 15:20:19 10° SSW 15:25:33 85° WNW 15:30:51 10° NNE
IUS-18 SRM-1 3.8 15:24:02 10° NNW 15:25:38 18° NNE 15:28:03 10° ENE
Cosmos 1656 3.9 15:25:55 10° NNW 15:31:19 75° ENE 15:36:45 10° SSE
Cosmos 1766 Rocket 3.6 15:28:36 10° SSW 15:33:01 64° W 15:37:27 10° N
